Tracking 29892 objects as of 21-Nov-2024
HD Live streaming from Space Station
objects crossing your sky now

FENGYUN 1C DEB

Track FENGYUN 1C DEB now!
10-day predictions


NORAD ID: 30143
Int'l Code: 1999-025SY
Perigee: 821.5 km
Apogee: 976.4 km
Inclination: 98.7 °
Period: 102.8 minutes
Semi major axis: 7269 km
RCS: 0.036 m2 (small)
Launch date: May 10, 1999
Source: People's Republic of China (PRC)
Launch site: Taiyaun Space Center, China (TSC)

Note: This is SATELLITE DEBRIS
Your satellite tracking list
Your tracking list is empty




NASA's NSSDC Master Catalog

Two Line Element Set (TLE):
1 30143U 99025SY  24325.48597181  .00003156  00000-0  20481-2 0  9997
2 30143  98.7321 158.8835 0106576 291.8397  96.7033 14.00573421907949
Source of the keplerian elements: AFSPC